Regional Weather Roundup
Issued by NWS

Home | Current Version | Previous Version | Text Only | Print | Product List | Glossary On
Versions: 1 2 3 4 5 6 7 8 9 10 11 12 13 14 15 16 17 18 19 20 21 22 23 24 25 26 27 28 29 30 31 32 33 34 35 36 37 38 39 40 41 42 43 44 45 46 47 48 49 50
000
ASUS43 KTOP 060759
RWRKS

WEATHER ROUNDUP FOR KANSAS
NATIONAL WEATHER SERVICE GOODLAND KS
200 AM CST SAT FEB 06 2016

NOTE:  "FAIR" INDICATES FEW OR NO CLOUDS BELOW 12,000 FEET WITH NO
SIGNIFICANT WEATHER AND/OR OBSTRUCTIONS TO VISIBILITY.

KSZ001>006-013>018-027>032-041>047-060900-
NORTHWEST KANSAS

CITY           SKY/WX    TMP DP  RH WIND       PRES   REMARKS
GOODLAND       CLOUDY    16   8  71 W12       30.29S WCI   3
HAYS           CLEAR     23  10  58 NW8       30.31R
HILL CITY      CLEAR     22  16  78 NW7       30.32R
RUSSELL        CLEAR     26  22  84 NW9       30.29R
$$

KSZ061>065-074>080-084>089-060900-
SOUTHWEST KANSAS

CITY           SKY/WX    TMP DP  RH WIND       PRES   REMARKS
DODGE CITY     CLEAR     23  18  81 NW12      30.31S WCI  12
ELKHART          N/A     23  12  62 W8          N/A
GARDEN CITY    CLEAR     23  16  74 NW9       30.31S
GREAT BEND     CLEAR     27  18  69 NW9       30.31R
LIBERAL        CLEAR     21  12  68 NW8       30.33S
$$

KSZ066>073-081>083-090>101-060900-
SOUTHEAST KANSAS

CITY           SKY/WX    TMP DP  RH WIND       PRES   REMARKS
CHANUTE        PTCLDY    33  25  72 S7        30.26F
COFFEYVILLE    PTCLDY    36  24  62 S5        30.29S
HUTCHINSON     CLEAR     28  24  85 NW7       30.29S
MEDICINE LODGE   N/A     29  24  82 N6        30.30S
NEWTON         CLEAR     30  21  69 NW7       30.30R
PARSONS        PTCLDY    36  26  67 SW3       30.28F
WICHITA INTL   MOCLDY    33  26  75 CALM      30.29R
WICHITA JABRA  PTCLDY    32  26  78 W7        30.29R
WINFIELD       CLOUDY    37  28  70 NW7       30.30S
$$

KSZ007>012-019>026-033>040-048>060-102>105-060900-
NORTHEAST KANSAS

CITY           SKY/WX    TMP DP  RH WIND       PRES   REMARKS
CONCORDIA      CLEAR     29  25  85 NW8       30.28S
EMPORIA        PTCLDY    28  22  78 W5        30.26R
LAWRENCE       PTCLDY    26  24  92 N6        30.25F
MANHATTAN      CLEAR     24  22  91 CALM      30.28S
OLATHE IND     CLEAR     34  25  69 SE7       30.24F
OLATHE EXE     CLEAR     33  24  69 S6        30.24F
SALINA         CLEAR     29  24  82 NW7       30.30S
TOPEKA BILLARD CLEAR     27  23  85 NW3       30.27R
TOPEKA FORBES  CLEAR     28  22  78 NW7       30.25F
$$



USA.gov is the U.S. government's official web portal to all federal, state and local government web resources and services.